Miscellaneous Local Product
Issued by NWS Hastings, NE

Home | Current Version | Previous Version | Graphics & Text | Print | Product List | Glossary On
Versions: 1 2 3 4 5 6 7 8 9 10 11 12 13 14 15 16 17 18 19 20 21 22 23 24 25 26 27 28 29 30 31 32 33 34 35 36 37 38 39 40 41 42 43 44 45 46 47 48 49 50
000
AXUS43 KGID 242102
MISGRI

GID CWA HOURLY WEATHER ROUNDUP
NATIONAL WEATHER SERVICE HASTINGS NE
300 PM CST FRI FEB 24 2017

NOTE: "FAIR" INDICATES FEW OR NO CLOUDS BELOW 12,000 FEET WITH NO
SIGNIFICANT WEATHER AND/OR OBSTRUCTIONS TO VISIBILITY.

...SOUTH CENTRAL NEBRASKA...

CITY           SKY/WX    TMP DP  RH WIND       PRES   REMARKS
GRAND ISLAND   CLOUDY    24  16  71 N26G33    29.98R WCI   8
HASTINGS       CLOUDY    24  16  71 N29       29.97S WCI   7
KEARNEY        CLOUDY    25  14  63 N17       29.99R WCI  11
ORD            MOSUNNY   24  14  65 N28G36    29.98S WCI   7
YORK           LGT RAIN  23  18  80 N17G23    29.94R WCI   9
AURORA         CLOUDY    24  19  80 N21G29    29.96S WCI   9
LEXINGTON      CLOUDY    26  15  62 N22       30.01R WCI  11
HOLDREGE       PTSUNNY   25  16  68 N16G25    29.98R WCI  12
HEBRON         CLOUDY    25  21  84 NW17G30   29.93R FOG     WCI  12

...NEBRASKA PANHANDLE...

CITY           SKY/WX    TMP DP  RH WIND       PRES   REMARKS
CHADRON        CLOUDY    21  15  78 NW5       30.07S WCI  15
ALLIANCE       CLOUDY    21  16  81 N7        30.01S WCI  12
SCOTTSBLUFF    LGT SNOW  23  17  78 S3        30.03S
SIDNEY         CLOUDY    23  15  71 N6        30.00S WCI  16

...WESTERN AND NORTH CENTRAL NEBRASKA...

CITY           SKY/WX    TMP DP  RH WIND       PRES   REMARKS
VALENTINE      CLOUDY    23  12  62 NW12      30.07R WCI  12
AINSWORTH      CLOUDY    23  16  75 NW16      30.04R WCI   9
ONEILL         PTSUNNY   25  18  74 NW24      30.00S WCI   9
BROKEN BOW     PTSUNNY   23  14  68 N22       30.00R WCI   8
IMPERIAL       CLOUDY    26  16  65 N18       30.01S WCI  13
NORTH PLATTE   CLOUDY    24  12  60 N15       30.03S WCI  11
MCCOOK         MOSUNNY   27  16  63 N22       30.02R WCI  13

...EASTERN NEBRASKA...

CITY           SKY/WX    TMP DP  RH WIND       PRES   REMARKS
NORFOLK        MIX PCPN  24  15  68 N18G35    29.93R WCI  10
SO SIOUX CITY  CLOUDY    27  16  63 N26G32    29.90R WCI  12
TEKAMAH        CLOUDY    24  20  84 NW22      29.89R FOG     WCI   9
COLUMBUS       CLOUDY    25  16  68 NW24G30   29.94R WCI   9
ALBION         PTSUNNY   26  14  62 N20G30    29.96R WCI  12
OMAHA EPPLEY   LGT SNOW  25  20  81 N20G36    29.86R VSB 3/4 WCI  11
OFFUTT AFB     LGT SNOW  25  20  80 NW10      29.86R WCI  15
MILLARD        LGT SNOW  27  22  82 NW18G24   29.88R WCI  14
LINCOLN        LGT SNOW  25  21  85 N26       29.91R VSB 1   WCI   9
NEBRASKA CITY  LGT SNOW  26  23  89 N16G22    29.85R VSB 1   WCI  13
BEATRICE       LGT SNOW  26  22  87 N26G32    29.91R WCI  10
FALLS CITY     LGT SNOW  28  24  85 N18G26    29.83R VSB 1   WCI  15

...NORTHERN KANSAS...

CITY           SKY/WX    TMP DP  RH WIND       PRES   REMARKS
GOODLAND       CLOUDY    28  20  71 N17       29.98R WCI  16
HILL CITY      CLOUDY    34  22  61 N25G33    29.99R WCI  21
PHILLIPSBURG   MOSUNNY   30  19  64 NW26      30.01R WCI  16
SMITH CENTER   CLOUDY    25  18  74 NW22G33   30.00R WCI  10
HAYS           MOSUNNY   35  19  52 N18G30    29.97R WCI  24
RUSSELL        CLOUDY    31  22  69 N22G30    29.96R WCI  18
CONCORDIA      MIX PCPN  27  22  81 N22G30    29.94R WCI  13
SALINA         LGT SNOW  33  23  66 NW23      29.95R WCI  21
TOPEKA         MIX PCPN  33  26  75 NW21      29.85R WCI  21



USA.gov is the U.S. government's official web portal to all federal, state and local government web resources and services.